Regional Weather Roundup
Issued by NWS Midland/Odessa, TX

Skip options and go directly to product.
Home | Oldest Version | Previous Version | Current Version | All | Text Only | Save Text | Print | Product List | Glossary Off

Skip product version selection by date and time.   

827
ASUS44 KMAF 292210
RWRMAF
MIDLAND AREA WEATHER ROUNDUP
NATIONAL WEATHER SERVICE MIDLAND TX
500 PM CDT SUN MAY 29 2016

...IN SOUTHWEST TEXAS AND SOUTHEAST NEW MEXICO...

CITY           SKY/WX    TMP DP  RH WIND       PRES   REMARKS
ALPINE         CLOUDY    80  56  43 E5        30.17F
ANDREWS        FAIR      80  63  56 S13G20    30.05F
ARTESIA        TSTM      72  61  68 SW30G37   30.04R
BIG SPRING     MOSUNNY   83  60  45 SE22      30.03F
CARLSBAD       CLOUDY    79  56  45 E9        29.99F
DRYDEN           N/A     84  68  58 SE17G25   30.01F
FORT STOCKTON  NOT AVBL
GUAD PASS      NOT AVBL
HOBBS          MOSUNNY   77  63  61 SE12G17   30.07F
MARFA          CLOUDY    79  59  50 SE10      30.15F
MIDLAND AIRPK  CLOUDY    84  62  48 S12       30.02F
MIDLAND INTL   CLOUDY    82  63  52 SE18      30.03F
ODESSA         CLOUDY    82  61  48 S15       30.04F
PECOS          PTSUNNY   84  62  46 E13       29.99R
PRESIDIO       FAIR      94  52  24 NE8       29.98
SEMINOLE       SUNNY     80  61  51 S18       30.05F
SNYDER           N/A     86  65  49 S16G22    30.00F
WINK           NOT AVBL
$$
...OTHER STATIONS IN TEXAS...

CITY           SKY/WX    TMP DP  RH WIND       PRES   REMARKS
ABILENE        SUNNY     87  65  47 S13       30.01F
AMARILLO       TSTM      57  54  89 NE9G23    30.22R VSB 1
AUSTIN         PTSUNNY   89  70  53 S12       30.01F
BROWNSVILLE    PTSUNNY   87  74  64 E18       29.97F
CORPUS CHRISTI PTSUNNY   86  74  67 SE15      29.99F
DALLAS FTW     CLOUDY    88  70  55 E8        30.00F
DEL RIO        CLOUDY    87  70  56 SE8       29.99S
EL PASO        MOSUNNY   92  19   7 VRB3      30.00F
HOUSTON INT    MOSUNNY   86  70  58 S9        30.03F
LUBBOCK        PTSUNNY   85  60  42 S22       30.02F
SAN ANGELO     PTSUNNY   88  66  48 SW13      30.00F
SAN ANTONIO    MOSUNNY   87  69  54 SE14G21   30.01F
WACO           MOSUNNY   89  69  51 S13       30.02F
WICHITA FALLS  NOT AVBL
$$
...OTHER LOCATIONS IN NEW MEXICO...

CITY           SKY/WX    TMP DP  RH WIND       PRES   REMARKS
ALAMAGORDO     MOSUNNY   90  25   9 SW7G21    30.02F
ALBUQUERQUE    MOSUNNY   85  14   7 S13G24    30.05F
CANNON AFB     PTSUNNY   76  58  52 S16       30.05F THUNDER
CLOVIS         CLOUDY    77  57  50 S14       30.07F
HOLLOMAN AFB   PTSUNNY   89  21   8 SW12      30.00F
ROSWELL        CLOUDY    86  39  19 S15G25    30.01F
RUIDOSO        SUNNY     77  19  11 W12G25    30.22S
SANTA FE       SUNNY     83  10   6 W16G30    30.11F
TRUTH OR CONSE SUNNY     87  17   7 S22G32    30.03F
TUCUMCARI      CLOUDY    71  48  43 E21G28    30.05F
$$

USA.gov is the U.S. government's official web portal to all federal, state and local government web resources and services.